Time,TemperatureF,DewpointF,PressureIn,WindDirection,WindDirectionDegrees,WindSpeedMPH,WindSpeedGustMPH,Humidity,HourlyPrecipIn,Conditions,Clouds,dailyrainin,SoftwareType,DateUTC
2013-04-28 00:10:00,46.5,45.4,30.18,SSW,202,0.0,2.0,96,0.02,,,0.00,VWS V12.07,2013-04-28 04:10:00,
2013-04-28 00:28:00,46.5,45.2,30.18,SSW,202,0.0,2.0,95,0.01,,,0.00,VWS V12.07,2013-04-28 04:28:00,
2013-04-28 00:40:00,46.4,45.3,30.18,SSW,202,0.0,1.0,96,0.01,,,0.00,VWS V12.07,2013-04-28 04:40:00,
2013-04-28 00:58:00,46.4,45.3,30.19,SSW,202,0.0,2.0,96,0.01,,,0.00,VWS V12.07,2013-04-28 04:58:00,
2013-04-28 01:10:00,46.2,45.1,30.18,SSW,202,0.0,0.0,96,0.02,,,0.02,VWS V12.07,2013-04-28 05:10:00,
2013-04-28 01:28:00,46.2,45.1,30.19,SSW,202,0.0,0.0,96,0.02,,,0.02,VWS V12.07,2013-04-28 05:28:00,
2013-04-28 01:40:00,46.2,45.1,30.18,SSW,203,0.0,3.0,96,0.02,,,0.02,VWS V12.07,2013-04-28 05:40:00,
2013-04-28 01:58:00,46.2,45.1,30.18,SE,144,0.0,6.0,96,0.02,,,0.02,VWS V12.07,2013-04-28 05:58:00,
2013-04-28 02:10:00,46.2,44.8,30.18,SE,140,0.0,7.0,95,0.01,,,0.02,VWS V12.07,2013-04-28 06:10:00,
2013-04-28 02:28:00,46.2,44.8,30.17,ESE,117,0.0,6.0,95,0.00,,,0.02,VWS V12.07,2013-04-28 06:28:00,
2013-04-28 02:40:00,46.2,45.1,30.17,SE,137,0.0,10.0,96,0.01,,,0.03,VWS V12.07,2013-04-28 06:40:00,
2013-04-28 02:58:00,46.2,45.1,30.16,SSE,153,2.0,6.0,96,0.02,,,0.04,VWS V12.07,2013-04-28 06:58:00,
2013-04-28 03:10:00,46.4,45.0,30.15,SSW,193,0.0,3.0,95,0.02,,,0.04,VWS V12.07,2013-04-28 07:10:00,
2013-04-28 03:28:00,46.4,45.0,30.15,ESE,115,4.0,15.0,95,0.02,,,0.04,VWS V12.07,2013-04-28 07:28:00,
2013-04-28 03:40:00,46.2,44.8,30.15,SSE,158,2.0,11.0,95,0.02,,,0.04,VWS V12.07,2013-04-28 07:40:00,
2013-04-28 03:58:00,46.0,44.4,30.15,WSW,251,0.0,19.0,94,0.01,,,0.04,VWS V12.07,2013-04-28 07:58:00,
2013-04-28 04:10:00,45.7,43.8,30.15,West,263,0.0,6.0,93,0.00,,,0.04,VWS V12.07,2013-04-28 08:10:00,
2013-04-28 04:28:00,45.7,43.8,30.16,West,263,0.0,3.0,93,0.00,,,0.04,VWS V12.07,2013-04-28 08:28:00,
2013-04-28 04:40:00,45.7,43.5,30.16,SSW,192,0.0,5.0,92,0.00,,,0.04,VWS V12.07,2013-04-28 08:40:00,
2013-04-28 04:58:00,45.4,42.9,30.16,SSW,192,0.0,3.0,91,0.00,,,0.04,VWS V12.07,2013-04-28 08:58:00,
2013-04-28 05:10:00,44.9,42.2,30.16,SSW,192,0.0,3.0,90,0.00,,,0.04,VWS V12.07,2013-04-28 09:10:00,
2013-04-28 05:28:00,44.8,42.0,30.15,SSW,192,0.0,2.0,90,0.00,,,0.04,VWS V12.07,2013-04-28 09:28:00,
2013-04-28 05:40:00,44.8,42.0,30.16,South,169,0.0,3.0,90,0.00,,,0.04,VWS V12.07,2013-04-28 09:40:00,
2013-04-28 05:58:00,44.6,41.8,30.15,South,170,0.0,4.0,90,0.00,,,0.04,VWS V12.07,2013-04-28 09:58:00,
2013-04-28 06:10:00,44.3,41.8,30.15,South,170,0.0,0.0,91,0.00,,,0.04,VWS V12.07,2013-04-28 10:10:00,
2013-04-28 06:28:00,44.3,42.1,30.15,South,170,0.0,0.0,92,0.00,,,0.04,VWS V12.07,2013-04-28 10:28:00,
2013-04-28 06:40:00,44.3,41.6,30.15,South,169,1.0,2.0,90,0.00,,,0.04,VWS V12.07,2013-04-28 10:40:00,
2013-04-28 06:58:00,44.3,41.0,30.15,SSE,161,2.0,4.0,88,0.00,,,0.04,VWS V12.07,2013-04-28 10:58:00,
2013-04-28 07:10:00,44.5,40.9,30.15,SSE,154,2.0,4.0,87,0.00,,,0.04,VWS V12.07,2013-04-28 11:10:00,
2013-04-28 07:28:00,44.5,40.9,30.15,SSE,154,0.0,3.0,87,0.00,,,0.04,VWS V12.07,2013-04-28 11:28:00,
2013-04-28 07:40:00,44.5,40.0,30.15,South,173,6.0,7.0,84,0.00,,,0.04,VWS V12.07,2013-04-28 11:40:00,
2013-04-28 07:58:00,44.3,40.1,30.15,SSW,200,1.0,6.0,85,0.00,,,0.04,VWS V12.07,2013-04-28 11:58:00,
2013-04-28 08:10:00,44.2,40.6,30.16,East,97,0.0,4.0,87,0.01,,,0.05,VWS V12.07,2013-04-28 12:10:00,
2013-04-28 08:28:00,44.1,41.1,30.17,East,97,0.0,2.0,89,0.01,,,0.05,VWS V12.07,2013-04-28 12:28:00,
2013-04-28 08:40:00,43.8,41.3,30.17,East,97,0.0,0.0,91,0.03,,,0.07,VWS V12.07,2013-04-28 12:40:00,
2013-04-28 08:58:00,43.8,41.6,30.17,East,97,0.0,0.0,92,0.03,,,0.07,VWS V12.07,2013-04-28 12:58:00,
2013-04-28 09:10:00,43.3,41.1,30.18,East,97,0.0,1.0,92,0.05,,,0.09,VWS V12.07,2013-04-28 13:10:00,
2013-04-28 09:28:00,43.3,41.4,30.18,East,97,0.0,0.0,93,0.05,,,0.10,VWS V12.07,2013-04-28 13:28:00,
2013-04-28 09:40:00,43.3,41.7,30.18,East,97,0.0,2.0,94,0.05,,,0.10,VWS V12.07,2013-04-28 13:40:00,
2013-04-28 09:58:00,43.2,41.6,30.18,East,97,0.0,1.0,94,0.03,,,0.10,VWS V12.07,2013-04-28 13:58:00,
2013-04-28 10:10:00,43.2,41.6,30.17,East,97,1.0,3.0,94,0.03,,,0.11,VWS V12.07,2013-04-28 14:10:00,
2013-04-28 10:28:00,43.3,41.7,30.19,WSW,257,0.0,6.0,94,0.08,,,0.17,VWS V12.07,2013-04-28 14:28:00,
2013-04-28 10:40:00,43.5,42.2,30.18,WSW,257,0.0,1.0,95,0.15,,,0.25,VWS V12.07,2013-04-28 14:40:00,
2013-04-28 10:58:00,43.6,42.3,30.17,East,97,4.0,6.0,95,0.18,,,0.28,VWS V12.07,2013-04-28 14:58:00,
2013-04-28 11:10:00,44.3,43.2,30.15,ESE,103,1.0,2.0,96,0.19,,,0.29,VWS V12.07,2013-04-28 15:10:00,
2013-04-28 11:28:00,44.9,43.8,30.16,ESE,103,2.0,3.0,96,0.19,,,0.30,VWS V12.07,2013-04-28 15:28:00,
2013-04-28 11:40:00,45.7,44.9,30.17,ESE,103,0.0,0.0,97,0.11,,,0.32,VWS V12.07,2013-04-28 15:40:00,
2013-04-28 11:58:00,45.8,45.0,30.16,ESE,103,0.0,0.0,97,0.10,,,0.35,VWS V12.07,2013-04-28 15:58:00,
2013-04-28 12:10:00,46.0,44.9,30.16,ESE,103,0.0,0.0,96,0.14,,,0.43,VWS V12.07,2013-04-28 16:10:00,
2013-04-28 12:28:00,46.0,45.2,30.15,ESE,103,0.0,0.0,97,0.17,,,0.46,VWS V12.07,2013-04-28 16:28:00,
2013-04-28 12:40:00,46.0,45.2,30.17,ESE,103,0.0,0.0,97,0.24,,,0.55,VWS V12.07,2013-04-28 16:40:00,
2013-04-28 12:58:00,46.0,45.2,30.17,ESE,103,0.0,0.0,97,0.29,,,0.61,VWS V12.07,2013-04-28 16:58:00,
2013-04-28 13:10:00,46.2,45.4,30.15,ESE,103,0.0,0.0,97,0.32,,,0.71,VWS V12.07,2013-04-28 17:10:00,
2013-04-28 13:28:00,46.5,45.7,30.15,ESE,103,0.0,0.0,97,0.32,,,0.75,VWS V12.07,2013-04-28 17:28:00,
2013-04-28 13:40:00,47.0,46.2,30.13,ESE,103,0.0,1.0,97,0.29,,,0.79,VWS V12.07,2013-04-28 17:40:00,
2013-04-28 13:58:00,47.3,46.5,30.12,ESE,103,0.0,2.0,97,0.26,,,0.81,VWS V12.07,2013-04-28 17:58:00,
2013-04-28 14:10:00,48.3,47.5,30.11,ESE,103,0.0,4.0,97,0.15,,,0.82,VWS V12.07,2013-04-28 18:10:00,
2013-04-28 14:28:00,48.9,48.4,30.10,ESE,103,0.0,1.0,98,0.12,,,0.83,VWS V12.07,2013-04-28 18:28:00,
2013-04-28 14:40:00,49.5,49.0,30.10,East,92,0.0,2.0,98,0.07,,,0.84,VWS V12.07,2013-04-28 18:40:00,
2013-04-28 14:58:00,49.2,48.4,30.09,East,92,3.0,3.0,97,0.06,,,0.85,VWS V12.07,2013-04-28 18:58:00,
2013-04-28 15:10:00,49.6,48.5,30.08,East,92,2.0,3.0,96,0.05,,,0.87,VWS V12.07,2013-04-28 19:10:00,
2013-04-28 15:28:00,49.8,48.7,30.08,East,92,3.0,3.0,96,0.06,,,0.88,VWS V12.07,2013-04-28 19:28:00,
2013-04-28 15:40:00,48.6,47.2,30.07,ENE,69,1.0,7.0,95,0.06,,,0.89,VWS V12.07,2013-04-28 19:40:00,
2013-04-28 15:58:00,48.2,46.8,30.08,ENE,66,2.0,5.0,95,0.06,,,0.90,VWS V12.07,2013-04-28 19:58:00,
2013-04-28 16:10:00,48.3,46.9,30.08,ENE,66,0.0,3.0,95,0.08,,,0.94,VWS V12.07,2013-04-28 20:10:00,
2013-04-28 16:28:00,48.5,47.1,30.07,ENE,66,1.0,2.0,95,0.08,,,0.95,VWS V12.07,2013-04-28 20:28:00,
2013-04-28 16:40:00,48.8,47.7,30.07,ENE,66,0.0,1.0,96,0.08,,,0.97,VWS V12.07,2013-04-28 20:40:00,
2013-04-28 16:58:00,48.6,47.2,30.06,ENE,66,0.0,2.0,95,0.09,,,0.98,VWS V12.07,2013-04-28 20:58:00,
2013-04-28 17:10:00,48.9,47.8,30.05,ENE,66,0.0,1.0,96,0.08,,,1.00,VWS V12.07,2013-04-28 21:10:00,
2013-04-28 17:28:00,49.1,47.7,30.05,ENE,66,0.0,1.0,95,0.07,,,1.01,VWS V12.07,2013-04-28 21:28:00,
2013-04-28 17:40:00,49.1,48.0,30.04,ENE,66,2.0,3.0,96,0.06,,,1.02,VWS V12.07,2013-04-28 21:40:00,
2013-04-28 17:58:00,49.2,48.1,30.04,ENE,66,2.0,3.0,96,0.05,,,1.02,VWS V12.07,2013-04-28 21:58:00,
2013-04-28 18:10:00,48.9,47.5,30.04,NE,46,1.0,4.0,95,0.04,,,1.03,VWS V12.07,2013-04-28 22:10:00,
2013-04-28 18:28:00,48.8,47.4,30.04,East,95,2.0,5.0,95,0.03,,,1.03,VWS V12.07,2013-04-28 22:28:00,
2013-04-28 18:40:00,48.8,47.4,30.05,East,95,0.0,1.0,95,0.02,,,1.04,VWS V12.07,2013-04-28 22:40:00,
2013-04-28 18:58:00,48.6,47.2,30.06,East,95,0.0,1.0,95,0.03,,,1.05,VWS V12.07,2013-04-28 22:58:00,
2013-04-28 19:10:00,48.6,47.5,30.06,East,95,0.0,0.0,96,0.05,,,1.08,VWS V12.07,2013-04-28 23:10:00,
2013-04-28 19:28:00,48.6,47.5,30.06,East,95,0.0,0.0,96,0.06,,,1.09,VWS V12.07,2013-04-28 23:28:00,
2013-04-28 19:40:00,48.5,47.4,30.05,East,95,0.0,2.0,96,0.08,,,1.11,VWS V12.07,2013-04-28 23:40:00,
2013-04-28 19:58:00,48.6,47.8,30.05,East,95,0.0,2.0,97,0.08,,,1.12,VWS V12.07,2013-04-28 23:58:00,
2013-04-28 20:10:00,48.8,48.0,30.04,East,95,0.0,2.0,97,0.07,,,1.13,VWS V12.07,2013-04-29 00:10:00,
2013-04-28 20:28:00,48.6,47.8,30.04,East,95,0.0,4.0,97,0.05,,,1.13,VWS V12.07,2013-04-29 00:28:00,
2013-04-28 20:40:00,48.5,47.7,30.02,East,95,0.0,0.0,97,0.04,,,1.14,VWS V12.07,2013-04-29 00:40:00,
2013-04-28 20:58:00,48.5,47.7,30.02,East,95,0.0,0.0,97,0.03,,,1.14,VWS V12.07,2013-04-29 00:58:00,
2013-04-28 21:10:00,48.6,47.8,30.02,East,95,0.0,4.0,97,0.01,,,1.14,VWS V12.07,2013-04-29 01:10:00,
2013-04-28 21:28:00,48.5,48.0,30.03,East,95,0.0,1.0,98,0.02,,,1.15,VWS V12.07,2013-04-29 01:28:00,
2013-04-28 21:40:00,48.3,47.8,30.03,East,95,0.0,0.0,98,0.01,,,1.15,VWS V12.07,2013-04-29 01:40:00,
2013-04-28 21:58:00,48.3,47.8,30.02,East,95,0.0,0.0,98,0.01,,,1.15,VWS V12.07,2013-04-29 01:58:00,
2013-04-28 22:10:00,48.5,48.0,29.99,East,81,4.0,7.0,98,0.01,,,1.15,VWS V12.07,2013-04-29 02:10:00,
2013-04-28 22:28:00,48.3,47.8,30.00,East,82,3.0,6.0,98,0.01,,,1.15,VWS V12.07,2013-04-29 02:28:00,
2013-04-28 22:40:00,48.0,47.5,30.01,NE,46,0.0,4.0,98,0.00,,,1.15,VWS V12.07,2013-04-29 02:40:00,
2013-04-28 22:58:00,47.9,47.4,30.02,NE,46,0.0,3.0,98,0.00,,,1.15,VWS V12.07,2013-04-29 02:58:00,
2013-04-28 23:10:00,47.7,47.2,30.03,NE,46,0.0,0.0,98,0.00,,,1.15,VWS V12.07,2013-04-29 03:10:00,
2013-04-28 23:28:00,47.9,47.4,30.02,NE,46,0.0,0.0,98,0.00,,,1.15,VWS V12.07,2013-04-29 03:28:00,
2013-04-28 23:40:00,47.9,47.4,30.02,NE,46,0.0,0.0,98,0.00,,,1.15,VWS V12.07,2013-04-29 03:40:00,
2013-04-28 23:58:00,47.9,47.6,30.03,NE,46,0.0,0.0,99,0.00,,,1.15,VWS V12.07,2013-04-29 03:58:00,